Regional Weather Roundup
Issued by NWS Cleveland, OH

Home | Current Version | Previous Version | Graphics & Text | Print | Product List | Glossary On
Versions: 1 2 3 4 5 6 7 8 9 10 11 12 13 14 15 16 17 18 19 20 21 22 23 24 25 26 27 28 29 30 31 32 33 34 35 36 37 38 39 40 41 42 43 44 45 46 47 48 49 50
000
ASUS41 KCLE 130502
RWRCLE
OHIO REGIONAL WEATHER ROUNDUP
NATIONAL WEATHER SERVICE CLEVELAND, OH
1200 AM EST SAT FEB 13 2016

NOTE: "FAIR" INDICATES FEW OR NO CLOUDS BELOW 12,000 FEET WITH NO
SIGNIFICANT WEATHER AND/OR OBSTRUCTIONS TO VISIBILITY.

OHZ001>008-015>018-024>027-034-035-043-044-130600-
   NORTHWEST OHIO

CITY           SKY/WX    TMP DP  RH WIND       PRES   REMARKS
DEFIANCE       CLEAR     13   3  64 NW12      30.28R WCI  -1
FINDLAY        PTCLDY    13   5  70 NW13      30.22R WCI  -2
TOLEDO EXPRESS CLEAR     10   0  63 N14G20    30.25R WCI  -6
TOLEDO EXEC    PTCLDY    12  -1  56 NW16G23   30.26R WCI  -5
LIMA           MOCLDY    13   7  77 NW18      30.23R WCI  -4
$$

OHZ009>014-019>023-028>033-038-089-130600-
   NORTHEAST OHIO

CITY           SKY/WX    TMP DP  RH WIND       PRES   REMARKS
CLE-HOPKINS    LGT SNOW  14   4  64 NW26G33   30.16R WCI  -6
CLE-LAKEFRONT  LGT SNOW  17   8  67 NW26G38   30.13R WCI  -2
CUY CO. ARPT   NOT AVBL
LORAIN-ELYRIA  LGT SNOW  14   7  73 N18       30.15R WCI  -3
ASHTABULA      CLOUDY    15  10  80 NW20G33   30.06R HAZE    WCI  -2
AKRON-CANTON   LGT SNOW  14  10  84 W15       30.07R VSB 3/4 WCI  -1
WOOSTER        FLURRIES  13   5  70 W18       30.11R WCI  -4
MANSFIELD      PTCLDY    12   3  67 NW15G22   30.12R WCI  -4
YOUNGSTOWN     LGT SNOW  14   8  77 W9        30.02R WCI   2
$$

OHZ042-051>053-060>062-070>072-077>081-130600-
  SOUTHWEST OHIO

CITY           SKY/WX    TMP DP  RH WIND       PRES   REMARKS
CINC-COVINGTON CLOUDY    20   8  60 NW16      30.29R WCI   6
CINC-LUNKEN    FLURRIES  20  11  68 NW12      30.34R WCI   8
HAMILTON       MOCLDY    19   6  57 NW14      30.32R WCI   6
DAYTON         MOCLDY    14   9  80 NW14      30.26R WCI  -1
WRIGHT-PAT AFB PTCLDY    16   5  62 NW16G29   30.26R WCI   1
DAYTON GENERAL CLEAR     16   4  59 NW10      30.26R WCI   4
WILMINGTON     CLEAR     15   5  64 NW15G22   30.24R WCI   0
$$

OHZ036-037-039>041-045>050-054>059-063>069-073>076-082>088-130600-
  CENTRAL AND SOUTHEAST OHIO

CITY           SKY/WX    TMP DP  RH WIND       PRES   REMARKS
COLUMBUS       MOCLDY    16   7  67 NW14      30.21R WCI   2
OSU AIRPORT    PTCLDY    15   7  70 W14       30.21R WCI   0
BOLTON FIELD   NOT AVBL
RICKENBACK AFB NOT AVBL
NEWARK         CLOUDY    17   5  59 NW14      30.18R WCI   3
MARION         PTCLDY    13   4  67 NW14      30.19R WCI  -2
LANCASTER      FLURRIES  16   9  74 NW13G18   30.21R WCI   2
ZANESVILLE     PTCLDY    18   6  59 NW14G22   30.16R WCI   4
NEW PHILLY     PTCLDY    15   5  64 W12       30.13R WCI   2
$$



USA.gov is the U.S. government's official web portal to all federal, state and local government web resources and services.